Weather Roundup
Issued by NWS

Home | Current Version | Previous Version | Graphics & Text | Print | Product List | Glossary Off
Versions: 1 2 3 4 5 6 7 8 9 10 11 12 13 14 15 16 17 18 19 20 21 22 23 24 25 26 27 28 29 30 31 32 33 34 35 36 37 38 39 40 41 42 43 44 45 46 47 48 49 50

000
NZUS93 KARX 160559
HRRWXR

CURRENT HOURLY OBSERVATIONS ACROSS
MUCH OF THE UPPER MISSISSIPPI VALLEY
NATIONAL WEATHER SERVICE LA CROSSE WI
100 AM CDT TUE SEP 16 2014


...SOUTHEAST MINNESOTA...


CITY           SKY/WX    TMP DP  RH WIND       PRES   REMARKS
ROCHESTER      CLEAR     43  38  82 W6        30.23S
ROCHESTER/MAYO FAIR      46  40  82 CALM      30.22F
WINONA         CLEAR     43  41  93 CALM      30.23S
AUSTIN         CLEAR     39  39 100 CALM      30.23S FOG
ALBERT LEA       N/A     41  41 100 CALM      30.23F FOG
DODGE CENTER   CLEAR     39  37  93 SW5       30.23R
PRESTON        CLEAR     44  43  97 CALM      30.23S
OWATONNA       CLEAR     39  37  93 CALM      30.23S
FARIBAULT      CLEAR     41  37  87 CALM      30.23S
$$

...ELSEWHERE IN MINNESOTA...


CITY           SKY/WX    TMP DP  RH WIND       PRES   REMARKS
MINNEAPOLIS    CLEAR     48  41  76 SW5       30.21F
INTNL FALLS    CLEAR     39  36  89 CALM      30.03F
DULUTH         CLEAR     45  35  68 SW10      30.13F
RED WING       CLEAR     39  39 100 CALM      30.21F
REDWOOD FALLS  CLEAR     43  37  79 SW5       30.23S
MANKATO        CLEAR     45  37  76 S3        30.23S
WORTHINGTON    CLEAR     41  39  93 SW5       30.25S
FAIRMONT       CLEAR     41  36  81 CALM      30.24S
$$

...SOUTHWEST WISCONSIN...


CITY           SKY/WX    TMP DP  RH WIND       PRES   REMARKS
LA CROSSE      CLEAR     46  43  89 SE5       30.22S
PRAIRIE DU CHI CLOUDY    44  42  94 CALM      30.24R
BOSCOBEL       FOG       44  43  96 S3        30.23S VSB 1/4
LONE ROCK      PTCLDY    45  40  82 W3        30.22S
PLATTEVILLE    CLEAR     44  42  95 CALM      30.23R
FORT MC COY    CLEAR     37  37 100 CALM      30.22S
VIROQUA        FAIR      43  43 100 CALM      30.22S
WIS DELLS      CLEAR     41  40  95 CALM      30.21R
$$

...ELSEWHERE IN WISCONSIN...


CITY           SKY/WX    TMP DP  RH WIND       PRES   REMARKS
MILWAUKEE      CLEAR     49  46  90 W3        30.18R
MADISON        CLEAR     43  41  93 CALM      30.20S
GREEN BAY      CLEAR     43  41  93 W3        30.17R
EAU CLAIRE     NOT AVBL
BLACK RVR FLS  FAIR      33  33 100 CALM      30.21S
MEDFORD        CLEAR     36  35  96 CALM      30.19R
WAUSAU         CLEAR     40  38  93 N3        30.18R
WIS RAPIDS     CLEAR     39  37  92 CALM      30.21S FOG
MARSHFIELD     CLEAR     40  37  89 W3        30.19S
RICE LAKE      CLEAR     39  38  97 CALM      30.21F
$$

...NORTHEAST IOWA...


CITY           SKY/WX    TMP DP  RH WIND       PRES   REMARKS
WATERLOO       CLEAR     40  39  97 CALM      30.24S
DUBUQUE        CLEAR     39  38  96 CALM      30.23R
DECORAH        PTCLDY    41  41 100 CALM      30.22S
MASON CITY     CLEAR     39  38  96 CALM      30.26S
CHARLES CITY   CLEAR     41  39  93 CALM      30.25S
OELWEIN        CLEAR     43  43 100 CALM      30.25S
$$

...ELSEWHERE IN IOWA...


CITY           SKY/WX    TMP DP  RH WIND       PRES   REMARKS
DES MOINES     CLEAR     49  44  83 CALM      30.25S
IOWA CITY      CLEAR     45  44  97 W3        30.25R
FORT DODGE     CLEAR     39  36  87 CALM      30.25S
MARSHALLTOWN   CLEAR     42  40  92 N3        30.24S
CEDAR RAPIDS   CLEAR     44  44 100 NW7       30.23S
$$

...NORTHERN ILLINOIS...


CITY           SKY/WX    TMP DP  RH WIND       PRES   REMARKS
CHICAGO-OHARE  PTCLDY    51  47  86 NW6       30.18S
DUPAGE         CLEAR     47  44  90 NW6       30.19R
CHICAGO-MIDWAY PTCLDY    54  49  83 N9        30.17S
MOLINE         CLEAR     45  43  93 SW6       30.23R
ROCKFORD       CLEAR     44  41  89 W3        30.22S
STERLING       CLEAR     46  43  87 CALM      30.20S
PEORIA         CLOUDY    55  49  80 N3        30.21R
$$

NOTE: "FAIR" INDICATES FEW OR NO CLOUDS BELOW 12,000 FEET WITH NO
SIGNIFICANT WEATHER AND/OR OBSTRUCTIONS TO VISIBILITY. WIND
SPEEDS ARE IN MILES-PER-HOUR.



USA.gov is the U.S. government's official web portal to all federal, state and local government web resources and services.